User: anonymous   Login
Location: Mentone
(34.5413°N, 85.5351°W)
Time: 10:31:34
(UTC-06:00)
Language:

Cosmos 2026 Rocket - Orbit

View from above orbital plane
View from above orbital plane
View from above satellite
View from above satellite

Ground track
Ground track

The orbit data is extracted from the following two-line orbital elements,

1 20046U 89042B   15058.90085179  .00000152  00000-0  13569-3 0  9998
2 20046 082.9375 209.3350 0040872 264.2792 260.9452 13.78001993293523
Epoch (UTC): 27 February 2015 21:37:13
Eccentricity: 0.0040872
inclination: 82.9375°
perigee height: 941 km
apogee height: 1001 km
right ascension of ascending node: 209.3350°
argument of perigee: 264.2792°
revolutions per day: 13.78001993
mean anomaly at epoch: 260.9452°
orbit number at epoch: 29352

The dashed part of the orbit path shows where the satellite is in the earth's shadow,  

DLR